Regional Weather Roundup
Issued by NWS Midland/Odessa, TX

Skip options and go directly to product.
Home | Oldest Version | Previous Version | Current Version | All | Text Only | Save Text | Print | Product List | Glossary On

Skip product version selection by date and time.   
589
ASUS44 KMAF 280110
RWRMAF
MIDLAND AREA WEATHER ROUNDUP
NATIONAL WEATHER SERVICE MIDLAND TX
700 PM CST FRI FEB 27 2015

...IN SOUTHWEST TEXAS AND SOUTHEAST NEW MEXICO...

CITY           SKY/WX    TMP DP  RH WIND       PRES   REMARKS
ALPINE         CLOUDY    27  26  96 NE6       30.11S WCI  20
ANDREWS        CLOUDY    18  17  95 E14       30.19S WCI   4
ARTESIA        CLOUDY    25  21  86 SE13      30.13R WCI  13
BIG SPRING     CLOUDY    20  16  86 NE12      30.27S WCI   8
CARLSBAD       CLOUDY    26  18  71 SE9       30.13R WCI  17
DRYDEN           N/A     36  27  69 E9        30.17R WCI  29
FORT STOCKTON  CLOUDY    25  25 100 E14       30.14F FOG     WCI  13
GUAD PASS      CLOUDY    18  15  88 NE22      29.92F FOG     WCI   1
HOBBS          CLOUDY    19  18  93 E10       30.15R WCI   8
MARFA          PTCLDY    27  23  86 NE15      30.01S WCI  15
MIDLAND AIRPK  CLOUDY    21  19  92 E12       30.22S FOG     WCI   9
MIDLAND INTL   LGT SNOW  20  18  92 E16       30.20F WCI   6
ODESSA         CLOUDY    19  16  88 E16       30.19F FOG     WCI   4
PECOS          CLOUDY    25  23  92 E9        30.17F WCI  16
PRESIDIO       FAIR      41  28  61 NE21G29   29.98R WCI  31
SEMINOLE       FLURRIES  19  17  90 E12       30.20R WCI   7
SNYDER         CLOUDY    17  13  84 E12       30.28S WCI   4
WINK           CLOUDY    24  18  77 E13       30.17S WCI  12
$$
...OTHER STATIONS IN TEXAS...

CITY           SKY/WX    TMP DP  RH WIND       PRES   REMARKS
ABILENE        CLOUDY    19  17  92 NE7       30.34S FOG     WCI  10
AMARILLO       LGT SNOW  13   9  84 SE13      30.21R FOG     WCI  -2
AUSTIN         DRIZZLE   33  29  85 N20       30.34R WCI  21
BROWNSVILLE    CLOUDY    62  56  80 NE6       30.13S
CORPUS CHRISTI LGT RAIN  49  45  86 NE21      30.20R FOG
DALLAS FTW     FRZ DRZL  26  22  84 E10       30.43R WCI  16
DEL RIO        CLOUDY    38  36  92 SE8       30.24F FOG     WCI  32
EL PASO        PTCLDY    42  23  46 E8        29.89R WCI  37
HOUSTON INT    CLOUDY    45  33  63 NE10      30.31F WCI  40
LUBBOCK        LGT SNOW  15  10  80 E12       30.21S WCI   2
SAN ANGELO     CLOUDY    24  22  91 NE13      30.29R WCI  12
SAN ANTONIO    CLOUDY    34  31  88 NE12      30.29R WCI  25
WACO           FRZ RAIN  29  27  92 NE14      30.40R FOG     WCI  18
WICHITA FALLS  NOT AVBL
$$
...OTHER LOCATIONS IN NEW MEXICO...

CITY           SKY/WX    TMP DP  RH WIND       PRES   REMARKS
ALAMAGORDO     PTCLDY    39  23  52 S9        29.92R WCI  33
ALBUQUERQUE    SNOW      24  22  91 N9        29.88F VSB 1/2 WCI  14
CANNON AFB     FLURRIES  13   9  87 SE12      30.10F WCI  -1
CLOVIS         CLOUDY    12   9  85 SE13      30.12R WCI  -3
HOLLOMAN AFB   MOCLDY    39  23  52 S13       29.90S WCI  32
ROSWELL        CLOUDY    24  18  77 SE8       30.11S WCI  15
RUIDOSO        FOG       14  12  92 SE5       29.92S VSB<1/4 WCI   6
SANTA FE       LGT SNOW  18  14  84 S14       29.87R VSB 1   WCI   4
TRUTH OR CONSE PTCLDY    48  27  44 S7        29.81S
TUCUMCARI      CLOUDY    16  10  77 S12       30.10S WCI   3
$$

USA.gov is the U.S. government's official web portal to all federal, state and local government web resources and services.